Content
SEND FEEDBACK

Daily
Averages
Monthly
Summary
Mauritania

PORT-ETIENNE, MAURITANIA


Home > Africa > Mauritania
Elevation: 10 feet     Latitude: 20 54N     Longitude: 017 06W

WEATHER
 
SELECT A DAY
Number of Records: 122,067;   Date Range: 7/1/96 - 11/25/14
 
SHARE

PRINT THIS DATA

[ ← Previous Day ]
WEATHER ALMANAC - OCTOBER 25, 2013
[ Next Day → ]
[ °C ]   °F
Weather ElementAverageHighLow
Temperature72.4 °F81 °F (3:00 pm)66 °F (6:00 am)
Dewpoint64.5 °F67 °F (6:00 pm)59 °F (10:00 am)
Humidity75.3 %90 % (6:00 am)51 % (3:00 pm)
Barometer29.96 in30.01 in (10:00 am)29.92 in (3:00 am)
Wind Speed15.9 mph20.7 mph (4:00 pm)
Wind Gust31.1 mph (6:00 am)
Weather ElementAverage
Visibility4.9 mi
Wind DirectionWNW (294.2 °)

Weather ElementTotal
Precipitation---
Cooling Degree Days8.5 (Base 65)
Growing Degree Days23.5 (Base 50)
Averaged from 33 records on October 25, 2013
WEATHER CONDITIONS BREAKOUT
WIND DIRECTION BREAKOUT
WEATHER BY HOUR - OCTOBER 25, 2013
[ °C ]   °F
Local TimeTemperatureDewpointHumidityBarometerVisibilityWind DirectionWind SpeedGust SpeedPrecipitationEventsConditions
12:00 AM69.8 °F62.6 °F78 %29.98 in5.0 miNNW (330°)11.5 mph
1:00 AM69.8 °F64.4 °F83 %29.95 in5.0 miNorth (350°)15.0 mph
2:00 AM69.8 °F64.4 °F83 %29.95 in5.0 miNNW (340°)15.0 mph
3:00 AM69.0 °F65.0 °F81 %29.94 in5.0 miNorth13.8 mph
3:00 AM69.8 °F62.6 °F78 %29.92 in5.0 miNNW (340°)15.0 mph
4:00 AM69.8 °F60.8 °F73 %29.92 in5.0 miNNW (340°)16.1 mph
5:00 AM68.0 °F62.6 °F83 %29.92 in5.0 miNNW (340°)9.2 mph
5:57 AM66.2 °F62.6 °F88 %29.95 in5.0 miNNW (330°)15.0 mph27.6 mphMostly Cloudy
6:00 AM66.2 °F62.6 °F88 %29.95 in5.0 miNNW (330°)16.1 mph31.1 mphMostly Cloudy
6:00 AM66.0 °F64.0 °F90 %29.96 in5.0 miNNW (340°)16.1 mphMostly Cloudy
6:59 AM68.0 °F62.6 °F83 %29.95 in5.0 miNorth (350°)16.1 mphPartly Cloudy
7:00 AM68.0 °F62.6 °F83 %29.95 inNorthPartly Cloudy
8:00 AM68.0 °F62.6 °F83 %29.98 in5.0 miNorth (360°)13.8 mph
9:00 AM73.0 °F64.0 °F66 %29.99 in5.0 miNNE (20°)16.1 mph
9:00 AM73.4 °F62.6 °F69 %29.98 in5.0 miNNE (20°)17.3 mph
10:00 AM77.0 °F59.0 °F54 %30.01 in5.0 miNNW (330°)16.1 mph
11:00 AM77.0 °F64.4 °F65 %30.01 in5.0 miNNW (340°)18.4 mph
12:00 PM76.0 °F66.0 °F64 %30.01 in5.0 miNNW (330°)17.3 mph
12:00 PM75.2 °F66.2 °F73 %29.98 in5.0 miNNW (330°)16.1 mph
1:00 PM78.8 °F66.2 °F65 %29.98 in5.0 miNNW (330°)12.7 mph
2:00 PM78.8 °F66.2 °F65 %29.95 in5.0 miNW (320°)15.0 mph
3:00 PM81.0 °F66.0 °F51 %29.96 in5.0 miNNW (330°)18.4 mphScattered Clouds
3:00 PM80.6 °F66.2 °F61 %29.95 in3.7 miNW (320°)17.3 mph
4:00 PM77.0 °F66.2 °F69 %29.95 in3.7 miNW (320°)20.7 mph
5:00 PM75.2 °F66.2 °F73 %29.95 in5.0 miNW (310°)16.1 mph
6:00 PM75.2 °F66.2 °F73 %29.92 in5.0 miNW (320°)19.6 mph
6:00 PM75.0 °F67.0 °F68 %29.95 in5.0 miNW (320°)19.6 mphPartly Cloudy
7:00 PM71.6 °F66.2 °F83 %29.95 in5.0 miNNW (330°)17.3 mphPartly Cloudy
8:00 PM71.6 °F66.2 °F83 %29.95 in5.0 miNNW (330°)17.3 mph
9:00 PM5.0 miNNW (340°)15.0 mph
9:00 PM71.6 °F66.2 °F83 %29.98 in5.0 miNNW (340°)16.1 mph
10:00 PM71.6 °F66.2 °F83 %29.98 in5.0 miNNW (340°)16.1 mph
11:00 PM69.8 °F66.2 °F88 %29.98 in5.0 miNNW (340°)13.8 mph
Hourly data recorded from GQPP, located miles away from Port-Etienne, Mauritania







STORIES FROM OUR PARTNERS